This is the latest recevied weather packets stored in our database for station/object HS3MXC-2. If no packets are shown the sender has not sent any weather packets the latest 1 day(s).
| Time | Temp. | Humidity | Pressure | Rain* | Wind** | Luminosity | Snow |
|---|---|---|---|---|---|---|---|
| 1778063587 | 32.22° C | 59% | 992.1 hPa | - | - | - | - |
| 1778062960 | 32.22° C | 59% | 992.1 hPa | - | - | - | - |
| 1778062034 | 31.67° C | 60% | 992.1 hPa | - | - | - | - |
| 1778061727 | 31.67° C | 59% | 992.1 hPa | - | - | - | - |
| 1778061417 | 31.67° C | 58% | 992.1 hPa | - | - | - | - |
| 1778061109 | 31.67° C | 58% | 992.2 hPa | - | - | - | - |
| 1778060802 | 31.67° C | 59% | 992.1 hPa | - | - | - | - |
| 1778060495 | 31.67° C | 59% | 992.2 hPa | - | - | - | - |
| 1778060188 | 31.67° C | 59% | 992.2 hPa | - | - | - | - |
| 1778059856 | 31.11° C | 59% | 992.2 hPa | - | - | - | - |
| 1778059239 | 24.44° C | 43% | 992.1 hPa | - | - | - | - |
| 1778058316 | 25° C | 44% | 992.2 hPa | - | - | - | - |
| 1778056782 | 25.56° C | 44% | 992.4 hPa | - | - | - | - |
| 1778056476 | 25° C | 44% | 992.4 hPa | - | - | - | - |
| 1778055553 | 25.56° C | 43% | 992.7 hPa | - | - | - | - |
| 1778054934 | 25.56° C | 43% | 992.8 hPa | - | - | - | - |
| 1778054320 | 25° C | 43% | 992.9 hPa | - | - | - | - |
| 1778053704 | 25° C | 43% | 993.1 hPa | - | - | - | - |
| 1778053397 | 25.56° C | 44% | 993.2 hPa | - | - | - | - |
| 1778052473 | 25.56° C | 44% | 993.5 hPa | - | - | - | - |
| 1778052166 | 26.11° C | 44% | 993.6 hPa | - | - | - | - |
| 1778051545 | 27.22° C | 45% | 993.6 hPa | - | - | - | - |
| 1778050308 | 28.33° C | 41% | 993.9 hPa | - | - | - | - |
| 1778049998 | 28.33° C | 41% | 994 hPa | - | - | - | - |
| 1778048769 | 27.78° C | 40% | 994.4 hPa | - | - | - | - |
* Rain since midnight (hover to see other rain measurements)
** Current wind speed in m/s (hover to see current wind gust speed)